Dewpoint
22 23 23 24 24 24 25 25 24 23 22 22 22 23 23 24 25 25 25 25 26 27 25 26 26 26 26 27 28 28 28 28 28 29 29 30 31 30 32 33 33 33 34 35 34 34 34 34 34 34 33 33 31 30 30 29 28 27 27 26 26 25
23 23 24 24 25 25 25 24 23 21 21 21 21 21 21 22 23 24 24 25 24 24 22 24 24 24 23 24 25 25 27 27 28 28 28 28 28 30 31 31 32 32 32 32 33 33 33 33 33 33 33 32 31 30 29 28 28 27 26 26 25 26
22 23 24 25 25 24 24 25 24 23 21 20 20 20 21 21 22 22 22 24 23 22 20 21 22 22 23 23 24 23 24 25 26 27 28 28 28 28 29 30 30 30 31 31 32 32 32 32 32 32 32 31 30 29 28 28 27 26 26 25 25 25
22 23 24 25 25 24 22 23 22 22 20 18 18 20 21 22 22 22 22 23 25 23 20 19 19 21 22 22 23 23 25 25 25 27 26 27 28 28 28 27 29 30 30 30 31 31 31 31 31 31 31 30 29 29 30 30 26 25 25 25 23 23
22 23 23 23 22 22 21 20 20 20 19 18 17 17 18 19 19 20 19 20 20 21 22 21 19 18 17 18 19 19 23 24 25 25 26 26 26 26 27 27 27 27 28 28 28 29 30 30 29 29 29 28 28 28 28 29 27 26 24 24 24 22
20 20 21 21 20 19 19 18 16 17 17 16 16 15 16 19 18 19 17 17 15 15 11 13 18 17 16 16 18 19 21 23 24 26 26 26 25 25 26 26 26 26 25 26 26 26 27 27 28 28 27 27 27 26 26 26 26 26 25 24 23 22
15 16 19 20 18 17 18 17 17 16 17 15 16 15 17 18 17 18 18 16 15 15 15 13 11 12 14 16 18 20 21 22 22 24 25 24 25 25 25 25 25 25 24 26 25 25 25 26 26 26 26 26 26 26 25 25 24 24 24 24 23 25
14 13 15 16 16 17 18 18 18 16 16 15 15 13 16 17 15 14 14 14 14 15 14 16 15 15 12 12 14 17 21 23 23 22 23 22 24 24 25 24 24 25 24 24 24 24 24 24 24 25 25 24 24 24 24 24 24 23 22 22 22 22
12 11 15 14 14 15 14 14 16 14 16 15 17 16 15 16 15 15 13 12 10 13 13 14 16 16 16 16 15 16 19 22 24 24 23 23 23 23 23 23 24 25 25 24 24 24 24 24 24 25 25 25 25 24 23 23 23 23 22 21 21 21
14 14 12 14 13 15 13 13 14 14 15 14 15 15 15 18 13 14 13 13 12 12 13 15 16 17 18 17 16 17 19 21 22 24 24 25 23 23 23 23 24 24 24 24 24 24 25 24 24 24 24 24 25 25 24 23 23 22 22 22 21 21
15 14 15 14 15 15 15 15 14 14 15 15 14 15 15 14 12 11 11 11 12 12 13 15 16 18 17 17 17 17 17 20 22 24 24 23 23 24 23 23 23 24 24 24 24 24 25 26 26 26 25 25 25 25 24 24 24 23 23 22 22 21
13 14 15 15 14 15 16 16 16 16 17 16 15 15 16 15 12 11 11 11 12 12 12 13 15 16 16 17 16 16 18 19 22 24 25 25 23 21 22 23 23 23 24 24 23 23 26 27 27 29 30 31 27 26 27 26 25 24 23 23 22 21
13 14 16 16 17 16 17 18 18 18 17 17 16 15 15 14 11 12 11 12 13 13 13 13 14 16 17 17 16 21 19 18 20 25 27 27 25 24 22 21 21 21 21 21 21 21 24 26 28 30 32 33 33 30 28 28 28 27 25 24 23 22
12 13 13 14 15 16 17 18 18 19 18 17 17 16 16 14 13 12 12 12 13 14 14 14 16 17 19 20 21 21 20 20 22 25 27 27 26 24 23 22 21 20 20 22 23 23 23 23 27 30 31 32 32 32 30 29 29 28 26 25 24 23
13 14 15 16 17 18 18 18 18 18 18 18 18 16 15 13 12 12 14 13 13 13 14 14 18 20 21 21 20 20 20 20 20 22 24 25 24 24 23 21 22 21 21 21 20 21 22 22 26 28 30 31 31 32 31 30 30 29 28 26 25 24
14 14 15 16 18 18 20 20 20 19 20 18 16 15 15 14 14 14 14 15 15 15 14 15 19 19 20 20 20 20 19 18 18 18 19 22 23 23 22 21 21 21 22 23 22 21 20 21 26 27 29 30 30 31 31 31 31 30 30 28 27 25
15 15 16 16 17 19 20 20 19 18 17 17 15 14 16 15 15 16 15 16 15 15 17 17 19 18 19 20 19 19 19 18 18 18 18 20 21 20 20 19 19 20 22 23 22 21 20 20 26 27 28 28 30 31 31 30 31 30 30 29 28 27
15 16 17 19 20 19 19 17 17 15 15 15 14 15 15 16 17 16 14 15 16 16 15 17 18 18 19 18 18 18 18 17 17 16 16 18 19 21 19 18 19 20 21 21 22 21 21 20 24 26 28 29 30 31 30 30 30 30 30 30 29 28
16 18 19 20 19 17 16 15 14 13 13 14 14 16 16 17 17 15 15 16 14 14 14 15 15 16 18 18 17 17 16 16 15 14 15 15 17 18 18 17 17 17 18 19 20 20 20 21 24 26 28 29 29 29 29 29 29 29 29 29 29 29
19 19 19 16 16 15 14 12 13 12 12 14 14 16 14 15 14 14 15 13 16 13 13 15 17 17 17 18 16 15 16 14 14 14 14 13 15 16 16 15 15 15 15 16 17 18 19 21 23 25 26 27 28 29 28 27 27 27 28 28 28 28
19 18 17 16 14 13 11 13 14 13 13 14 13 13 14 13 12 12 13 11 11 10 14 14 15 16 16 16 15 14 13 13 13 13 13 13 15 15 14 13 13 12 13 14 15 17 17 19 22 24 25 26 27 27 27 27 27 27 27 27 27 27
17 15 15 14 12 11 11 13 12 16 13 11 10 12 13 11 11 10 9 9 9 11 13 13 14 14 15 15 15 14 13 13 12 11 11 12 13 12 11 10 10 10 10 12 12 13 13 13 15 19 22 23 25 27 27 26 26 26 26 26 27 27
15 13 11 10 8 10 11 13 14 13 12 10 10 11 9 9 7 8 8 8 10 12 12 12 12 12 12 13 12 12 11 11 11 10 10 10 10 10 9 9 9 8 8 8 9 9 11 12 15 18 21 23 25 26 27 26 25 25 25 25 26 27
11 9 8 8 8 10 11 13 13 11 9 10 10 9 5 5 5 5 9 9 10 10 10 9 9 9 9 9 10 9 9 10 10 9 8 7 7 7 7 7 7 6 6 7 7 8 9 12 15 15 19 22 24 26 27 25 24 25 25 24 25 26
8 7 7 6 7 8 11 12 11 10 10 8 7 4 3 3 3 5 5 6 6 5 4 4 4 4 4 4 5 6 6 5 6 6 7 6 6 6 5 5 5 6 6 6 6 8 10 12 14 17 18 21 23 25 27 27 26 27 27 25 24 25
7 6 6 6 7 8 9 10 9 9 8 5 2 2 3 3 3 2 2 2 1 1 1 1 1 1 0 1 2 2 2 1 2 3 2 2 2 3 2 3 3 3 3 3 2 5 6 9 9 14 17 18 22 24 26 26 27 28 26 25 25 25
6 7 6 5 6 5 7 7 7 5 3 1 0 2 1 1 0 -0 -1 -1 -2 -2 -2 -2 -2 -2 -2 -1 -1 -2 -2 -1 0 -1 0 1 1 1 1 1 2 2 2 3 4 4 6 8 9 10 16 20 22 25 25 26 26 27 29 27 26 27
8 7 6 5 5 4 5 3 3 1 1 -1 -1 -0 -0 -1 -2 -3 -3 -3 -4 -3 -3 -3 -4 -4 -3 -3 -3 -4 -3 -3 -3 -3 -3 -2 -2 -1 -1 -1 0 1 2 2 3 5 7 9 11 12 14 18 19 21 23 24 25 26 27 27 27 28
6 5 5 4 3 2 1 1 0 0 -0 -0 -1 -1 -1 -2 -3 -3 -4 -4 -4 -4 -4 -4 -6 -6 -5 -4 -4 -5 -5 -5 -4 -4 -3 -4 -3 -2 -2 -1 -0 0 1 2 3 5 7 8 9 10 13 15 15 16 19 21 22 24 26 25 26 27
4 3 2 1 -1 -1 -0 -0 -0 -1 -1 -1 -1 -1 -2 -3 -4 -5 -5 -5 -5 -6 -6 -6 -4 -5 -7 -6 -6 -7 -7 -7 -6 -6 -7 -6 -6 -5 -5 -4 -3 -2 -2 -1 0 1 1 2 4 5 6 10 14 16 18 20 20 20 20 21 23 24
2 1 -0 -2 -2 -2 -1 -2 -1 -1 -2 -2 -2 -2 -4 -4 -4 -4 -5 -5 -6 -6 -6 -6 -6 -7 -7 -7 -6 -7 -6 -7 -7 -7 -7 -4 -4 -5 -6 -6 -5 -3 -2 -2 -2 -1 -1 1 3 5 10 13 17 17 19 19 19 20 20 22 24 23
-1 -2 -3 -3 -3 -3 -2 -3 -3 -2 -3 -2 -3 -3 -4 -5 -5 -5 -6 -6 -7 -7 -8 -8 -8 -7 -7 -8 -8 -7 -7 -2 7 3 -3 -4 5 10 12 12 2 2 2 1 1 2 1 1 3 13 16 17 19 21 23 23 23 23 22 23 24 24
-3 -4 -4 -4 -3 -3 -3 -3 -4 -3 -3 -3 -3 -3 -4 -4 -6 -6 -7 -8 -9 -8 -8 -8 -8 -8 -8 -7 -7 -8 -8 -8 -7 6 9 10 9 10 11 13 14 14 15 7 5 9 15 16 18 18 19 19 20 21 22 23 24 24 25 25 24 22
-5 -5 -5 -5 -4 -4 -4 -4 -4 -4 -3 -3 -3 -3 -4 -5 -6 -8 -8 -9 -9 -8 -8 -9 -8 -8 -8 -8 -8 -8 -8 -9 -9 -9 3 8 9 10 11 12 13 13 14 14 12 11 8 13 16 17 18 19 21 21 22 22 23 23 25 26 26 23
-6 -6 -5 -5 -5 -5 -5 -5 -5 -4 -4 -3 -4 -4 -5 -6 -6 -7 -8 -8 -8 -9 -9 -9 -9 -8 -8 -8 -8 -8 -8 -9 -9 -10 -10 -7 5 8 10 11 12 12 13 14 14 15 15 16 16 17 17 18 18 19 20 21 23 24 24 25 23 23
-6 -6 -6 -6 -6 -6 -5 -5 -5 -4 -4 -4 -4 -4 -5 -6 -6 -7 -8 -8 -8 -9 -9 -9 -8 -9 -8 -8 -8 -8 -8 -9 -8 -9 -9 -9 -9 -8 -1 6 8 10 11 12 12 13 13 14 15 16 16 16 17 18 19 20 19 23 24 24 22 23
-7 -6 -6 -6 -5 -5 -6 -5 -5 -4 -4 -4 -4 -5 -5 -6 -6 -7 -7 -6 -7 -8 -8 -8 -8 -8 -8 -8 -8 -8 -8 -8 -8 -8 -8 -9 -9 -9 -9 -9 -7 2 8 2 6 10 13 14 15 16 16 17 18 18 19 20 16 17 19 21 23 23
-7 -7 -6 -6 -6 -5 -5 -5 -5 -4 -4 -4 -4 -5 -5 -5 -6 -7 -7 -8 -7 -7 -8 -8 -7 -7 -7 -7 -7 -7 -6 -7 -7 -7 -8 -8 -7 -8 -8 -7 -7 -5 5 9 11 12 13 14 15 15 16 17 18 19 20 13 13 15 18 21 22 22